owner,sensor,date,latitude,longitude,sea_water_turbidity,qcFlag 
SCCF RECON,ioos:station:SCCF:13:1,2017-10-01T04:00:00Z,26.5255,-82.0032,4.33,1111122 
SCCF RECON,ioos:station:SCCF:13:1,2017-10-01T05:00:00Z,26.5255,-82.0032,3.41,1111122 
SCCF RECON,ioos:station:SCCF:13:1,2017-10-01T06:00:00Z,26.5255,-82.0032,3.18,1111122 
SCCF RECON,ioos:station:SCCF:13:1,2017-10-01T07:00:00Z,26.5255,-82.0032,3.67,1111122 
SCCF RECON,ioos:station:SCCF:13:1,2017-10-01T08:00:00Z,26.5255,-82.0032,2.95,1111122 
SCCF RECON,ioos:station:SCCF:13:1,2017-10-01T09:00:00Z,26.5255,-82.0032,3.38,1111122 
SCCF RECON,ioos:station:SCCF:13:1,2017-10-01T10:00:00Z,26.5255,-82.0032,3.23,1111122 
SCCF RECON,ioos:station:SCCF:13:1,2017-10-01T11:00:00Z,26.5255,-82.0032,3.11,1111122 
SCCF RECON,ioos:station:SCCF:13:1,2017-10-01T12:00:00Z,26.5255,-82.0032,2.82,1111122 
SCCF RECON,ioos:station:SCCF:13:1,2017-10-01T13:00:00Z,26.5255,-82.0032,3.55,1111122 
SCCF RECON,ioos:station:SCCF:13:1,2017-10-01T14:00:00Z,26.5255,-82.0032,3.51,1111122 
SCCF RECON,ioos:station:SCCF:13:1,2017-10-01T15:00:00Z,26.5255,-82.0032,3.96,1111122 
SCCF RECON,ioos:station:SCCF:13:1,2017-10-01T16:00:00Z,26.5255,-82.0032,3.43,1111122 
SCCF RECON,ioos:station:SCCF:13:1,2017-10-01T17:00:00Z,26.5255,-82.0032,3.42,1111122 
SCCF RECON,ioos:station:SCCF:13:1,2017-10-01T18:00:00Z,26.5255,-82.0032,3.56,1111122 
SCCF RECON,ioos:station:SCCF:13:1,2017-10-01T19:00:00Z,26.5255,-82.0032,4.37,1111122 
SCCF RECON,ioos:station:SCCF:13:1,2017-10-01T20:00:00Z,26.5255,-82.0032,4.57,1111122 
SCCF RECON,ioos:station:SCCF:13:1,2017-10-01T21:00:00Z,26.5255,-82.0032,4.12,1111122 
SCCF RECON,ioos:station:SCCF:13:1,2017-10-01T22:00:00Z,26.5255,-82.0032,4.38,1111122 
SCCF RECON,ioos:station:SCCF:13:1,2017-10-02T04:00:00Z,26.5255,-82.0032,4.19,1111122 
SCCF RECON,ioos:station:SCCF:13:1,2017-10-02T05:00:00Z,26.5255,-82.0032,3.33,1111122 
SCCF RECON,ioos:station:SCCF:13:1,2017-10-02T07:00:00Z,26.5255,-82.0032,2.95,1111122 
SCCF RECON,ioos:station:SCCF:13:1,2017-10-02T08:00:00Z,26.5255,-82.0032,2.83,1111122 
SCCF RECON,ioos:station:SCCF:13:1,2017-10-02T09:00:00Z,26.5255,-82.0032,4.87,1111122 
SCCF RECON,ioos:station:SCCF:13:1,2017-10-02T10:00:00Z,26.5255,-82.0032,4.58,1111122 
SCCF RECON,ioos:station:SCCF:13:1,2017-10-02T11:00:00Z,26.5255,-82.0032,4.27,1111122 
SCCF RECON,ioos:station:SCCF:13:1,2017-10-02T12:00:00Z,26.5255,-82.0032,4.03,1111122 
SCCF RECON,ioos:station:SCCF:13:1,2017-10-02T13:00:00Z,26.5255,-82.0032,4.05,1111122 
SCCF RECON,ioos:station:SCCF:13:1,2017-10-02T14:00:00Z,26.5255,-82.0032,4.21,1111122 
SCCF RECON,ioos:station:SCCF:13:1,2017-10-02T15:00:00Z,26.5255,-82.0032,4.43,1111122 
SCCF RECON,ioos:station:SCCF:13:1,2017-10-02T16:00:00Z,26.5255,-82.0032,4.2,1111122 
SCCF RECON,ioos:station:SCCF:13:1,2017-10-02T17:00:00Z,26.5255,-82.0032,3.98,1111122 
SCCF RECON,ioos:station:SCCF:13:1,2017-10-02T18:00:00Z,26.5255,-82.0032,3.36,1111122 
SCCF RECON,ioos:station:SCCF:13:1,2017-10-02T19:00:00Z,26.5255,-82.0032,3.06,1111122 
SCCF RECON,ioos:station:SCCF:13:1,2017-10-02T20:00:00Z,26.5255,-82.0032,5.38,1111122 
SCCF RECON,ioos:station:SCCF:13:1,2017-10-02T21:00:00Z,26.5255,-82.0032,5.37,1111122 
SCCF RECON,ioos:station:SCCF:13:1,2017-10-02T22:00:00Z,26.5255,-82.0032,4.85,1111122 
SCCF RECON,ioos:station:SCCF:13:1,2017-10-03T04:00:00Z,26.5255,-82.0032,7.45,1111122 
SCCF RECON,ioos:station:SCCF:13:1,2017-10-03T05:00:00Z,26.5255,-82.0032,7.28,1111122 
SCCF RECON,ioos:station:SCCF:13:1,2017-10-03T06:00:00Z,26.5255,-82.0032,4.42,1111122 
SCCF RECON,ioos:station:SCCF:13:1,2017-10-03T07:00:00Z,26.5255,-82.0032,3.88,1111122 
SCCF RECON,ioos:station:SCCF:13:1,2017-10-03T08:00:00Z,26.5255,-82.0032,5.6,1111122 
SCCF RECON,ioos:station:SCCF:13:1,2017-10-03T09:00:00Z,26.5255,-82.0032,6.58,1111122 
SCCF RECON,ioos:station:SCCF:13:1,2017-10-03T12:00:00Z,26.5255,-82.0032,5.56,1111122 
SCCF RECON,ioos:station:SCCF:13:1,2017-10-03T13:00:00Z,26.5255,-82.0032,5.63,1111122 
SCCF RECON,ioos:station:SCCF:13:1,2017-10-03T14:00:00Z,26.5255,-82.0032,6.06,1111122 
SCCF RECON,ioos:station:SCCF:13:1,2017-10-03T15:00:00Z,26.5255,-82.0032,5.4,1111122 
SCCF RECON,ioos:station:SCCF:13:1,2017-10-03T16:00:00Z,26.5255,-82.0032,6.89,1111122 
SCCF RECON,ioos:station:SCCF:13:1,2017-10-03T17:00:00Z,26.5255,-82.0032,6.21,1111122 
SCCF RECON,ioos:station:SCCF:13:1,2017-10-03T18:00:00Z,26.5255,-82.0032,4.88,1111122 
SCCF RECON,ioos:station:SCCF:13:1,2017-10-03T19:00:00Z,26.5255,-82.0032,5.0,1111122 
SCCF RECON,ioos:station:SCCF:13:1,2017-10-03T20:00:00Z,26.5255,-82.0032,5.64,1111122 
SCCF RECON,ioos:station:SCCF:13:1,2017-10-03T21:00:00Z,26.5255,-82.0032,9.66,1111122 
SCCF RECON,ioos:station:SCCF:13:1,2017-10-03T22:00:00Z,26.5255,-82.0032,8.07,1111122 
SCCF RECON,ioos:station:SCCF:13:1,2017-10-04T04:00:00Z,26.5255,-82.0032,13.47,1111122 
SCCF RECON,ioos:station:SCCF:13:1,2017-10-04T05:00:00Z,26.5255,-82.0032,12.25,1111122 
SCCF RECON,ioos:station:SCCF:13:1,2017-10-04T06:00:00Z,26.5255,-82.0032,8.89,1111122 
SCCF RECON,ioos:station:SCCF:13:1,2017-10-04T07:00:00Z,26.5255,-82.0032,5.43,1111122 
SCCF RECON,ioos:station:SCCF:13:1,2017-10-04T08:00:00Z,26.5255,-82.0032,8.55,1111122 
SCCF RECON,ioos:station:SCCF:13:1,2017-10-04T09:00:00Z,26.5255,-82.0032,15.55,1111122 
SCCF RECON,ioos:station:SCCF:13:1,2017-10-04T11:00:00Z,26.5255,-82.0032,19.22,1111122 
SCCF RECON,ioos:station:SCCF:13:1,2017-10-04T12:00:00Z,26.5255,-82.0032,18.08,1111122 
SCCF RECON,ioos:station:SCCF:13:1,2017-10-04T13:00:00Z,26.5255,-82.0032,16.89,1111122 
SCCF RECON,ioos:station:SCCF:13:1,2017-10-04T14:00:00Z,26.5255,-82.0032,10.08,1111122 
SCCF RECON,ioos:station:SCCF:13:1,2017-10-04T15:00:00Z,26.5255,-82.0032,17.78,1111122 
SCCF RECON,ioos:station:SCCF:13:1,2017-10-04T16:00:00Z,26.5255,-82.0032,32.92,1111122 
SCCF RECON,ioos:station:SCCF:13:1,2017-10-04T17:00:00Z,26.5255,-82.0032,16.27,1111122 
SCCF RECON,ioos:station:SCCF:13:1,2017-10-04T18:00:00Z,26.5255,-82.0032,9.32,1111122 
SCCF RECON,ioos:station:SCCF:13:1,2017-10-04T19:00:00Z,26.5255,-82.0032,5.58,1111122 
SCCF RECON,ioos:station:SCCF:13:1,2017-10-04T20:00:00Z,26.5255,-82.0032,5.72,1111122 
SCCF RECON,ioos:station:SCCF:13:1,2017-10-04T21:00:00Z,26.5255,-82.0032,7.1,1111122 
SCCF RECON,ioos:station:SCCF:13:1,2017-10-04T22:00:00Z,26.5255,-82.0032,12.4,1111122 
SCCF RECON,ioos:station:SCCF:13:1,2017-10-05T04:00:00Z,26.5255,-82.0032,10.92,1111122 
SCCF RECON,ioos:station:SCCF:13:1,2017-10-05T05:00:00Z,26.5255,-82.0032,13.44,1111122 
SCCF RECON,ioos:station:SCCF:13:1,2017-10-05T06:00:00Z,26.5255,-82.0032,8.46,1111122 
SCCF RECON,ioos:station:SCCF:13:1,2017-10-05T07:00:00Z,26.5255,-82.0032,5.2,1111122 
SCCF RECON,ioos:station:SCCF:13:1,2017-10-05T08:00:00Z,26.5255,-82.0032,4.79,1111122 
SCCF RECON,ioos:station:SCCF:13:1,2017-10-05T09:00:00Z,26.5255,-82.0032,5.22,1111122 
SCCF RECON,ioos:station:SCCF:13:1,2017-10-05T10:00:00Z,26.5255,-82.0032,8.73,1111122 
SCCF RECON,ioos:station:SCCF:13:1,2017-10-05T11:00:00Z,26.5255,-82.0032,7.83,1111122 
SCCF RECON,ioos:station:SCCF:13:1,2017-10-05T13:00:00Z,26.5255,-82.0032,8.44,1111122 
SCCF RECON,ioos:station:SCCF:13:1,2017-10-05T14:00:00Z,26.5255,-82.0032,8.11,1111122 
SCCF RECON,ioos:station:SCCF:13:1,2017-10-05T15:00:00Z,26.5255,-82.0032,12.51,1111122 
SCCF RECON,ioos:station:SCCF:13:1,2017-10-05T16:00:00Z,26.5255,-82.0032,10.1,1111122 
SCCF RECON,ioos:station:SCCF:13:1,2017-10-05T18:00:00Z,26.5255,-82.0032,6.81,1111122 
SCCF RECON,ioos:station:SCCF:13:1,2017-10-05T19:00:00Z,26.5255,-82.0032,4.68,1111122 
SCCF RECON,ioos:station:SCCF:13:1,2017-10-05T20:00:00Z,26.5255,-82.0032,3.88,1111122 
SCCF RECON,ioos:station:SCCF:13:1,2017-10-05T21:00:00Z,26.5255,-82.0032,3.51,1111122 
SCCF RECON,ioos:station:SCCF:13:1,2017-10-05T22:00:00Z,26.5255,-82.0032,4.61,1111122 
SCCF RECON,ioos:station:SCCF:13:1,2017-10-06T04:00:00Z,26.5255,-82.0032,10.65,1111122 
SCCF RECON,ioos:station:SCCF:13:1,2017-10-06T05:00:00Z,26.5255,-82.0032,7.23,1111122 
SCCF RECON,ioos:station:SCCF:13:1,2017-10-06T06:00:00Z,26.5255,-82.0032,5.62,1111122 
SCCF RECON,ioos:station:SCCF:13:1,2017-10-06T07:00:00Z,26.5255,-82.0032,4.94,1111122 
SCCF RECON,ioos:station:SCCF:13:1,2017-10-06T08:00:00Z,26.5255,-82.0032,3.37,1111122 
SCCF RECON,ioos:station:SCCF:13:1,2017-10-06T09:00:00Z,26.5255,-82.0032,2.51,1111122 
SCCF RECON,ioos:station:SCCF:13:1,2017-10-06T10:00:00Z,26.5255,-82.0032,2.84,1111122 
SCCF RECON,ioos:station:SCCF:13:1,2017-10-06T11:00:00Z,26.5255,-82.0032,6.63,1111122 
SCCF RECON,ioos:station:SCCF:13:1,2017-10-06T12:00:00Z,26.5255,-82.0032,6.72,1111122 
SCCF RECON,ioos:station:SCCF:13:1,2017-10-06T13:00:00Z,26.5255,-82.0032,6.79,1111122 
SCCF RECON,ioos:station:SCCF:13:1,2017-10-06T14:00:00Z,26.5255,-82.0032,6.59,1111122 
SCCF RECON,ioos:station:SCCF:13:1,2017-10-06T15:00:00Z,26.5255,-82.0032,6.38,1111122 
SCCF RECON,ioos:station:SCCF:13:1,2017-10-06T16:00:00Z,26.5255,-82.0032,6.93,1111122 
SCCF RECON,ioos:station:SCCF:13:1,2017-10-06T17:00:00Z,26.5255,-82.0032,8.36,1111122 
SCCF RECON,ioos:station:SCCF:13:1,2017-10-06T18:00:00Z,26.5255,-82.0032,6.09,1111122 
SCCF RECON,ioos:station:SCCF:13:1,2017-10-06T19:00:00Z,26.5255,-82.0032,4.6,1111122 
SCCF RECON,ioos:station:SCCF:13:1,2017-10-06T20:00:00Z,26.5255,-82.0032,3.2,1111122 
SCCF RECON,ioos:station:SCCF:13:1,2017-10-06T21:00:00Z,26.5255,-82.0032,2.57,1111122 
SCCF RECON,ioos:station:SCCF:13:1,2017-10-06T22:00:00Z,26.5255,-82.0032,2.74,1111122 
SCCF RECON,ioos:station:SCCF:13:1,2017-10-07T04:00:00Z,26.5255,-82.0032,4.72,1111122 
SCCF RECON,ioos:station:SCCF:13:1,2017-10-07T05:00:00Z,26.5255,-82.0032,6.96,1111122 
SCCF RECON,ioos:station:SCCF:13:1,2017-10-07T06:00:00Z,26.5255,-82.0032,5.28,1111122 
SCCF RECON,ioos:station:SCCF:13:1,2017-10-07T07:00:00Z,26.5255,-82.0032,4.42,1111122 
SCCF RECON,ioos:station:SCCF:13:1,2017-10-07T08:00:00Z,26.5255,-82.0032,3.4,1111122 
SCCF RECON,ioos:station:SCCF:13:1,2017-10-07T09:00:00Z,26.5255,-82.0032,2.84,1111122 
SCCF RECON,ioos:station:SCCF:13:1,2017-10-07T10:00:00Z,26.5255,-82.0032,3.17,1111122 
SCCF RECON,ioos:station:SCCF:13:1,2017-10-07T11:00:00Z,26.5255,-82.0032,5.83,1111122 
SCCF RECON,ioos:station:SCCF:13:1,2017-10-07T12:00:00Z,26.5255,-82.0032,5.25,1111122 
SCCF RECON,ioos:station:SCCF:13:1,2017-10-07T13:00:00Z,26.5255,-82.0032,5.58,1111122 
SCCF RECON,ioos:station:SCCF:13:1,2017-10-07T14:00:00Z,26.5255,-82.0032,5.97,1111122 
SCCF RECON,ioos:station:SCCF:13:1,2017-10-07T15:00:00Z,26.5255,-82.0032,5.49,1111122 
SCCF RECON,ioos:station:SCCF:13:1,2017-10-07T16:00:00Z,26.5255,-82.0032,5.97,1111122 
SCCF RECON,ioos:station:SCCF:13:1,2017-10-07T17:00:00Z,26.5255,-82.0032,8.56,1111122 
SCCF RECON,ioos:station:SCCF:13:1,2017-10-07T18:00:00Z,26.5255,-82.0032,9.25,1111122 
SCCF RECON,ioos:station:SCCF:13:1,2017-10-07T19:00:00Z,26.5255,-82.0032,10.19,1111122 
SCCF RECON,ioos:station:SCCF:13:1,2017-10-07T20:00:00Z,26.5255,-82.0032,9.96,1111122 
SCCF RECON,ioos:station:SCCF:13:1,2017-10-07T21:00:00Z,26.5255,-82.0032,6.48,1111122 
SCCF RECON,ioos:station:SCCF:13:1,2017-10-07T22:00:00Z,26.5255,-82.0032,4.08,1111122 
SCCF RECON,ioos:station:SCCF:13:1,2017-10-08T04:00:00Z,26.5255,-82.0032,5.74,1111122 
SCCF RECON,ioos:station:SCCF:13:1,2017-10-08T05:00:00Z,26.5255,-82.0032,4.05,1111122 
SCCF RECON,ioos:station:SCCF:13:1,2017-10-08T06:00:00Z,26.5255,-82.0032,4.25,1111122 
SCCF RECON,ioos:station:SCCF:13:1,2017-10-08T07:00:00Z,26.5255,-82.0032,4.24,1111122 
SCCF RECON,ioos:station:SCCF:13:1,2017-10-08T08:00:00Z,26.5255,-82.0032,4.07,1111122 
SCCF RECON,ioos:station:SCCF:13:1,2017-10-08T09:00:00Z,26.5255,-82.0032,3.55,1111122 
SCCF RECON,ioos:station:SCCF:13:1,2017-10-08T10:00:00Z,26.5255,-82.0032,2.84,1111122 
SCCF RECON,ioos:station:SCCF:13:1,2017-10-08T11:00:00Z,26.5255,-82.0032,5.24,1111122 
SCCF RECON,ioos:station:SCCF:13:1,2017-10-08T12:00:00Z,26.5255,-82.0032,5.16,1111122 
SCCF RECON,ioos:station:SCCF:13:1,2017-10-08T13:00:00Z,26.5255,-82.0032,5.66,1111122 
SCCF RECON,ioos:station:SCCF:13:1,2017-10-08T14:00:00Z,26.5255,-82.0032,6.21,1111122 
SCCF RECON,ioos:station:SCCF:13:1,2017-10-08T15:00:00Z,26.5255,-82.0032,6.56,1111122 
SCCF RECON,ioos:station:SCCF:13:1,2017-10-08T16:00:00Z,26.5255,-82.0032,5.78,1111122 
SCCF RECON,ioos:station:SCCF:13:1,2017-10-08T17:00:00Z,26.5255,-82.0032,5.33,1111122 
SCCF RECON,ioos:station:SCCF:13:1,2017-10-08T18:00:00Z,26.5255,-82.0032,7.36,1111122 
SCCF RECON,ioos:station:SCCF:13:1,2017-10-08T19:00:00Z,26.5255,-82.0032,14.46,1111122 
SCCF RECON,ioos:station:SCCF:13:1,2017-10-08T20:00:00Z,26.5255,-82.0032,8.26,1111122 
SCCF RECON,ioos:station:SCCF:13:1,2017-10-08T21:00:00Z,26.5255,-82.0032,7.45,1111122 
SCCF RECON,ioos:station:SCCF:13:1,2017-10-08T22:00:00Z,26.5255,-82.0032,4.52,1111122 
SCCF RECON,ioos:station:SCCF:13:1,2017-10-09T04:00:00Z,26.5255,-82.0032,4.78,1111122 
SCCF RECON,ioos:station:SCCF:13:1,2017-10-09T05:00:00Z,26.5255,-82.0032,4.02,1111122 
SCCF RECON,ioos:station:SCCF:13:1,2017-10-09T06:00:00Z,26.5255,-82.0032,5.5,1111122 
SCCF RECON,ioos:station:SCCF:13:1,2017-10-09T07:00:00Z,26.5255,-82.0032,6.31,1111122 
SCCF RECON,ioos:station:SCCF:13:1,2017-10-09T08:00:00Z,26.5255,-82.0032,4.7,1111122 
SCCF RECON,ioos:station:SCCF:13:1,2017-10-09T09:00:00Z,26.5255,-82.0032,3.51,1111122 
SCCF RECON,ioos:station:SCCF:13:1,2017-10-09T10:00:00Z,26.5255,-82.0032,3.53,1111122 
SCCF RECON,ioos:station:SCCF:13:1,2017-10-09T11:00:00Z,26.5255,-82.0032,3.16,1111122 
SCCF RECON,ioos:station:SCCF:13:1,2017-10-09T12:00:00Z,26.5255,-82.0032,5.83,1111122 
SCCF RECON,ioos:station:SCCF:13:1,2017-10-09T13:00:00Z,26.5255,-82.0032,5.5,1111122 
SCCF RECON,ioos:station:SCCF:13:1,2017-10-09T14:00:00Z,26.5255,-82.0032,5.84,1111122 
SCCF RECON,ioos:station:SCCF:13:1,2017-10-09T15:00:00Z,26.5255,-82.0032,6.42,1111122 
SCCF RECON,ioos:station:SCCF:13:1,2017-10-09T16:00:00Z,26.5255,-82.0032,6.64,1111122 
SCCF RECON,ioos:station:SCCF:13:1,2017-10-09T18:00:00Z,26.5255,-82.0032,6.44,1111122 
SCCF RECON,ioos:station:SCCF:13:1,2017-10-09T19:00:00Z,26.5255,-82.0032,5.93,1111122 
SCCF RECON,ioos:station:SCCF:13:1,2017-10-09T20:00:00Z,26.5255,-82.0032,10.21,1111122 
SCCF RECON,ioos:station:SCCF:13:1,2017-10-09T21:00:00Z,26.5255,-82.0032,11.48,1111122 
SCCF RECON,ioos:station:SCCF:13:1,2017-10-09T22:00:00Z,26.5255,-82.0032,6.33,1111122 
SCCF RECON,ioos:station:SCCF:13:1,2017-10-10T04:00:00Z,26.5255,-82.0032,4.71,1111122 
SCCF RECON,ioos:station:SCCF:13:1,2017-10-10T05:00:00Z,26.5255,-82.0032,3.39,1111122 
SCCF RECON,ioos:station:SCCF:13:1,2017-10-10T06:00:00Z,26.5255,-82.0032,4.14,1111122 
SCCF RECON,ioos:station:SCCF:13:1,2017-10-10T07:00:00Z,26.5255,-82.0032,4.34,1111122 
SCCF RECON,ioos:station:SCCF:13:1,2017-10-10T08:00:00Z,26.5255,-82.0032,3.53,1111122 
SCCF RECON,ioos:station:SCCF:13:1,2017-10-10T09:00:00Z,26.5255,-82.0032,2.8,1111122 
SCCF RECON,ioos:station:SCCF:13:1,2017-10-10T10:00:00Z,26.5255,-82.0032,2.4,1111122 
SCCF RECON,ioos:station:SCCF:13:1,2017-10-10T11:00:00Z,26.5255,-82.0032,2.73,1111122 
SCCF RECON,ioos:station:SCCF:13:1,2017-10-10T12:00:00Z,26.5255,-82.0032,3.9,1111122 
SCCF RECON,ioos:station:SCCF:13:1,2017-10-10T13:00:00Z,26.5255,-82.0032,6.19,1111122 
SCCF RECON,ioos:station:SCCF:13:1,2017-10-10T14:00:00Z,26.5255,-82.0032,5.81,1111122 
SCCF RECON,ioos:station:SCCF:13:1,2017-10-10T15:00:00Z,26.5255,-82.0032,6.1,1111122 
SCCF RECON,ioos:station:SCCF:13:1,2017-10-10T16:00:00Z,26.5255,-82.0032,7.14,1111122 
SCCF RECON,ioos:station:SCCF:13:1,2017-10-10T17:00:00Z,26.5255,-82.0032,6.81,1111122 
SCCF RECON,ioos:station:SCCF:13:1,2017-10-10T18:00:00Z,26.5255,-82.0032,6.27,1111122 
SCCF RECON,ioos:station:SCCF:13:1,2017-10-10T19:00:00Z,26.5255,-82.0032,6.09,1111122 
SCCF RECON,ioos:station:SCCF:13:1,2017-10-10T20:00:00Z,26.5255,-82.0032,6.15,1111122 
SCCF RECON,ioos:station:SCCF:13:1,2017-10-10T21:00:00Z,26.5255,-82.0032,8.83,1111122 
SCCF RECON,ioos:station:SCCF:13:1,2017-10-10T22:00:00Z,26.5255,-82.0032,10.08,1111122 
SCCF RECON,ioos:station:SCCF:13:1,2017-10-11T04:00:00Z,26.5255,-82.0032,3.25,1111122 
SCCF RECON,ioos:station:SCCF:13:1,2017-10-11T05:00:00Z,26.5255,-82.0032,1.97,1111122 
SCCF RECON,ioos:station:SCCF:13:1,2017-10-11T06:00:00Z,26.5255,-82.0032,2.19,1111122 
SCCF RECON,ioos:station:SCCF:13:1,2017-10-11T07:00:00Z,26.5255,-82.0032,2.79,1111122 
SCCF RECON,ioos:station:SCCF:13:1,2017-10-11T08:00:00Z,26.5255,-82.0032,2.9,1111122 
SCCF RECON,ioos:station:SCCF:13:1,2017-10-11T09:00:00Z,26.5255,-82.0032,2.83,1111122 
SCCF RECON,ioos:station:SCCF:13:1,2017-10-11T10:00:00Z,26.5255,-82.0032,2.52,1111122 
SCCF RECON,ioos:station:SCCF:13:1,2017-10-11T11:00:00Z,26.5255,-82.0032,2.28,1111122 
SCCF RECON,ioos:station:SCCF:13:1,2017-10-11T12:00:00Z,26.5255,-82.0032,2.33,1111122 
SCCF RECON,ioos:station:SCCF:13:1,2017-10-11T13:00:00Z,26.5255,-82.0032,4.38,1111122 
SCCF RECON,ioos:station:SCCF:13:1,2017-10-11T14:00:00Z,26.5255,-82.0032,6.01,1111122 
SCCF RECON,ioos:station:SCCF:13:1,2017-10-11T15:00:00Z,26.5255,-82.0032,5.55,1111122 
SCCF RECON,ioos:station:SCCF:13:1,2017-10-11T16:00:00Z,26.5255,-82.0032,5.98,1111122 
SCCF RECON,ioos:station:SCCF:13:1,2017-10-11T17:00:00Z,26.5255,-82.0032,6.6,1111122 
SCCF RECON,ioos:station:SCCF:13:1,2017-10-11T18:00:00Z,26.5255,-82.0032,6.49,1111122 
SCCF RECON,ioos:station:SCCF:13:1,2017-10-11T19:00:00Z,26.5255,-82.0032,6.37,1111122 
SCCF RECON,ioos:station:SCCF:13:1,2017-10-11T20:00:00Z,26.5255,-82.0032,6.04,1111122 
SCCF RECON,ioos:station:SCCF:13:1,2017-10-11T21:00:00Z,26.5255,-82.0032,5.82,1111122 
SCCF RECON,ioos:station:SCCF:13:1,2017-10-11T22:00:00Z,26.5255,-82.0032,6.32,1111122 
SCCF RECON,ioos:station:SCCF:13:1,2017-10-12T05:00:00Z,26.5255,-82.0032,4.0,1111122 
SCCF RECON,ioos:station:SCCF:13:1,2017-10-12T06:00:00Z,26.5255,-82.0032,3.07,1111122 
SCCF RECON,ioos:station:SCCF:13:1,2017-10-12T07:00:00Z,26.5255,-82.0032,2.01,1111122 
SCCF RECON,ioos:station:SCCF:13:1,2017-10-12T08:00:00Z,26.5255,-82.0032,2.88,1111122 
SCCF RECON,ioos:station:SCCF:13:1,2017-10-12T09:00:00Z,26.5255,-82.0032,2.52,1111122 
SCCF RECON,ioos:station:SCCF:13:1,2017-10-12T10:00:00Z,26.5255,-82.0032,2.66,1111122 
SCCF RECON,ioos:station:SCCF:13:1,2017-10-12T11:00:00Z,26.5255,-82.0032,2.58,1111122 
SCCF RECON,ioos:station:SCCF:13:1,2017-10-12T12:00:00Z,26.5255,-82.0032,2.5,1111122 
SCCF RECON,ioos:station:SCCF:13:1,2017-10-12T13:00:00Z,26.5255,-82.0032,2.63,1111122 
SCCF RECON,ioos:station:SCCF:13:1,2017-10-12T14:00:00Z,26.5255,-82.0032,2.36,1111122 
SCCF RECON,ioos:station:SCCF:13:1,2017-10-12T15:00:00Z,26.5255,-82.0032,6.58,1111122 
SCCF RECON,ioos:station:SCCF:13:1,2017-10-12T16:00:00Z,26.5255,-82.0032,5.63,1111122 
SCCF RECON,ioos:station:SCCF:13:1,2017-10-12T17:00:00Z,26.5255,-82.0032,5.62,1111122 
SCCF RECON,ioos:station:SCCF:13:1,2017-10-12T18:00:00Z,26.5255,-82.0032,6.13,1111122 
SCCF RECON,ioos:station:SCCF:13:1,2017-10-12T19:00:00Z,26.5255,-82.0032,6.89,1111122 
SCCF RECON,ioos:station:SCCF:13:1,2017-10-12T20:00:00Z,26.5255,-82.0032,6.65,1111122 
SCCF RECON,ioos:station:SCCF:13:1,2017-10-12T21:00:00Z,26.5255,-82.0032,6.23,1111122 
SCCF RECON,ioos:station:SCCF:13:1,2017-10-12T22:00:00Z,26.5255,-82.0032,6.02,1111122 
SCCF RECON,ioos:station:SCCF:13:1,2017-10-13T04:00:00Z,26.5255,-82.0032,3.34,1111122 
SCCF RECON,ioos:station:SCCF:13:1,2017-10-13T05:00:00Z,26.5255,-82.0032,3.95,1111122 
SCCF RECON,ioos:station:SCCF:13:1,2017-10-13T06:00:00Z,26.5255,-82.0032,4.26,1111122 
SCCF RECON,ioos:station:SCCF:13:1,2017-10-13T07:00:00Z,26.5255,-82.0032,4.71,1111122 
SCCF RECON,ioos:station:SCCF:13:1,2017-10-13T08:00:00Z,26.5255,-82.0032,3.05,1111122 
SCCF RECON,ioos:station:SCCF:13:1,2017-10-13T09:00:00Z,26.5255,-82.0032,3.3,1111122 
SCCF RECON,ioos:station:SCCF:13:1,2017-10-13T10:00:00Z,26.5255,-82.0032,3.11,1111122 
SCCF RECON,ioos:station:SCCF:13:1,2017-10-13T11:00:00Z,26.5255,-82.0032,3.07,1111122 
SCCF RECON,ioos:station:SCCF:13:1,2017-10-13T12:00:00Z,26.5255,-82.0032,3.28,1111122 
SCCF RECON,ioos:station:SCCF:13:1,2017-10-13T13:00:00Z,26.5255,-82.0032,2.79,1111122 
SCCF RECON,ioos:station:SCCF:13:1,2017-10-13T14:00:00Z,26.5255,-82.0032,2.85,1111122 
SCCF RECON,ioos:station:SCCF:13:1,2017-10-13T15:00:00Z,26.5255,-82.0032,2.57,1111122 
SCCF RECON,ioos:station:SCCF:13:1,2017-10-13T16:00:00Z,26.5255,-82.0032,3.61,1111122 
SCCF RECON,ioos:station:SCCF:13:1,2017-10-13T17:00:00Z,26.5255,-82.0032,6.08,1111122 
SCCF RECON,ioos:station:SCCF:13:1,2017-10-13T18:00:00Z,26.5255,-82.0032,5.46,1111122 
SCCF RECON,ioos:station:SCCF:13:1,2017-10-13T19:00:00Z,26.5255,-82.0032,5.46,1111122 
SCCF RECON,ioos:station:SCCF:13:1,2017-10-13T20:00:00Z,26.5255,-82.0032,5.51,1111122 
SCCF RECON,ioos:station:SCCF:13:1,2017-10-13T21:00:00Z,26.5255,-82.0032,5.52,1111122 
SCCF RECON,ioos:station:SCCF:13:1,2017-10-13T22:00:00Z,26.5255,-82.0032,5.29,1111122 
SCCF RECON,ioos:station:SCCF:13:1,2017-10-14T04:00:00Z,26.5255,-82.0032,2.56,1111122 
SCCF RECON,ioos:station:SCCF:13:1,2017-10-14T05:00:00Z,26.5255,-82.0032,2.21,1111122 
SCCF RECON,ioos:station:SCCF:13:1,2017-10-14T06:00:00Z,26.5255,-82.0032,2.15,1111122 
SCCF RECON,ioos:station:SCCF:13:1,2017-10-14T07:00:00Z,26.5255,-82.0032,2.75,1111122 
SCCF RECON,ioos:station:SCCF:13:1,2017-10-14T08:00:00Z,26.5255,-82.0032,4.08,1111122 
SCCF RECON,ioos:station:SCCF:13:1,2017-10-14T09:00:00Z,26.5255,-82.0032,3.88,1111122 
SCCF RECON,ioos:station:SCCF:13:1,2017-10-14T10:00:00Z,26.5255,-82.0032,2.22,1111122 
SCCF RECON,ioos:station:SCCF:13:1,2017-10-14T11:00:00Z,26.5255,-82.0032,2.5,1111122 
SCCF RECON,ioos:station:SCCF:13:1,2017-10-14T12:00:00Z,26.5255,-82.0032,2.8,1111122 
SCCF RECON,ioos:station:SCCF:13:1,2017-10-14T13:00:00Z,26.5255,-82.0032,2.82,1111122 
SCCF RECON,ioos:station:SCCF:13:1,2017-10-14T14:00:00Z,26.5255,-82.0032,2.91,1111122 
SCCF RECON,ioos:station:SCCF:13:1,2017-10-14T15:00:00Z,26.5255,-82.0032,2.26,1111122 
SCCF RECON,ioos:station:SCCF:13:1,2017-10-14T16:00:00Z,26.5255,-82.0032,2.2,1111122 
SCCF RECON,ioos:station:SCCF:13:1,2017-10-14T17:00:00Z,26.5255,-82.0032,2.27,1111122 
SCCF RECON,ioos:station:SCCF:13:1,2017-10-14T18:00:00Z,26.5255,-82.0032,5.26,1111122 
SCCF RECON,ioos:station:SCCF:13:1,2017-10-14T19:00:00Z,26.5255,-82.0032,4.9,1111122 
SCCF RECON,ioos:station:SCCF:13:1,2017-10-14T20:00:00Z,26.5255,-82.0032,5.03,1111122 
SCCF RECON,ioos:station:SCCF:13:1,2017-10-14T21:00:00Z,26.5255,-82.0032,5.29,1111122 
SCCF RECON,ioos:station:SCCF:13:1,2017-10-14T22:00:00Z,26.5255,-82.0032,5.18,1111122 
SCCF RECON,ioos:station:SCCF:13:1,2017-10-15T04:00:00Z,26.5255,-82.0032,3.59,1111122 
SCCF RECON,ioos:station:SCCF:13:1,2017-10-15T05:00:00Z,26.5255,-82.0032,2.57,1111122 
SCCF RECON,ioos:station:SCCF:13:1,2017-10-15T06:00:00Z,26.5255,-82.0032,2.26,1111122 
SCCF RECON,ioos:station:SCCF:13:1,2017-10-15T07:00:00Z,26.5255,-82.0032,2.51,1111122 
SCCF RECON,ioos:station:SCCF:13:1,2017-10-15T08:00:00Z,26.5255,-82.0032,3.87,1111122 
SCCF RECON,ioos:station:SCCF:13:1,2017-10-15T09:00:00Z,26.5255,-82.0032,4.48,1111122 
SCCF RECON,ioos:station:SCCF:13:1,2017-10-15T10:00:00Z,26.5255,-82.0032,4.23,1111122 
SCCF RECON,ioos:station:SCCF:13:1,2017-10-15T11:00:00Z,26.5255,-82.0032,3.04,1111122 
SCCF RECON,ioos:station:SCCF:13:1,2017-10-15T12:00:00Z,26.5255,-82.0032,3.21,1111122 
SCCF RECON,ioos:station:SCCF:13:1,2017-10-15T13:00:00Z,26.5255,-82.0032,3.31,1111122 
SCCF RECON,ioos:station:SCCF:13:1,2017-10-15T14:00:00Z,26.5255,-82.0032,4.04,1111122 
SCCF RECON,ioos:station:SCCF:13:1,2017-10-15T15:00:00Z,26.5255,-82.0032,2.6,1111122 
SCCF RECON,ioos:station:SCCF:13:1,2017-10-15T16:00:00Z,26.5255,-82.0032,2.24,1111122 
SCCF RECON,ioos:station:SCCF:13:1,2017-10-15T17:00:00Z,26.5255,-82.0032,9.36,1111122 
SCCF RECON,ioos:station:SCCF:13:1,2017-10-15T18:00:00Z,26.5255,-82.0032,1.77,1111122 
SCCF RECON,ioos:station:SCCF:13:1,2017-10-15T19:00:00Z,26.5255,-82.0032,3.12,1111122 
SCCF RECON,ioos:station:SCCF:13:1,2017-10-15T20:00:00Z,26.5255,-82.0032,4.67,1111122 
SCCF RECON,ioos:station:SCCF:13:1,2017-10-15T21:00:00Z,26.5255,-82.0032,4.64,1111122 
SCCF RECON,ioos:station:SCCF:13:1,2017-10-15T22:00:00Z,26.5255,-82.0032,4.55,1111122 
SCCF RECON,ioos:station:SCCF:13:1,2017-10-16T04:00:00Z,26.5255,-82.0032,3.16,1111122 